Dewpoint
67 66 66 66 67 68 68 68 68 68 68 68 68 67 67 66 58 60 65 66 68 68 69 69 68 67 66 67 68 68 69 67 66
63 63 63 64 64 65 66 66 67 67 67 67 67 67 67 62 59 60 64 66 67 67 67 67 67 67 66 67 67 68 68 67 66
59 59 59 60 60 60 61 62 62 62 63 64 65 66 66 61 61 62 63 68 68 67 66 68 66 66 66 65 65 66 66 66 65
55 54 55 56 56 55 56 56 57 57 57 57 59 62 65 63 64 65 65 68 67 67 66 66 67 66 65 66 64 65 65 65 64
48 47 48 50 50 51 50 50 49 48 48 48 53 58 63 62 65 64 60 66 67 67 66 66 66 66 67 66 66 65 65 64 64
33 41 43 43 44 45 45 44 42 39 39 41 50 53 49 54 59 50 55 61 66 67 67 67 66 66 66 66 66 66 66 65 65
29 33 36 38 36 38 38 39 35 27 16 18 32 26 35 40 45 47 58 61 64 65 66 67 67 67 66 67 66 66 66 67 66
23 27 26 25 30 21 24 22 20 14 12 14 13 16 20 26 35 54 60 63 66 66 67 67 67 67 67 67 66 67 66 66 67
18 20 23 22 20 17 20 18 13 12 8 8 11 15 21 29 41 51 53 58 61 64 64 64 65 65 67 67 67 67 67 66 66
20 18 19 19 20 17 17 15 12 10 7 8 8 12 19 38 44 44 48 49 53 55 60 60 60 63 64 64 65 65 66 66 66
20 19 20 18 20 20 17 15 14 13 9 8 7 12 20 32 33 36 39 42 44 47 52 53 55 59 60 62 63 63 64 65 66
23 21 21 19 18 18 19 16 16 16 14 10 11 16 23 25 27 29 30 30 33 38 44 45 48 53 56 59 61 60 61 62 64
22 23 21 21 20 21 19 20 18 17 17 14 16 18 27 19 21 23 25 24 21 26 36 38 41 45 50 55 59 58 58 59 60
19 21 21 22 22 20 19 21 21 21 20 16 16 22 28 18 19 18 18 19 21 20 28 30 32 38 44 50 54 54 54 55 56
19 18 19 20 20 19 20 19 20 19 21 11 14 21 27 22 21 18 14 16 18 17 21 20 23 31 36 42 48 48 48 49 52
19 18 16 17 17 17 16 19 18 20 21 19 20 20 24 18 15 18 14 18 16 15 17 16 20 21 30 34 42 43 43 45 47
15 18 17 16 16 15 15 17 18 17 20 17 19 12 16 18 12 16 14 13 17 15 15 12 16 20 23 28 35 38 40 42 45
15 16 16 16 16 16 15 16 17 14 16 19 17 6 6 11 15 11 13 11 14 16 17 14 16 17 21 27 27 34 36 40 42
15 15 15 14 15 14 14 12 15 15 13 16 15 21 17 12 7 10 14 13 10 13 16 15 15 16 20 24 24 30 34 37 40
15 14 15 14 14 13 14 13 13 13 14 14 15 15 15 15 15 14 10 11 12 13 14 15 15 14 18 22 22 29 32 35 37
Lifted_Index
1 1 1 1 0 -0 -1 -1 -1 -1 -1 -1 -0 0 0 1 1 -0 -1 -2 -2 -2 -2 -2 -2 -1 -1 -1 -2 -2 -2 -1 -0
1 1 2 2 1 1 0 0 -0 -0 -0 -0 0 0 0 0 0 0 -1 -1 -1 -2 -2 -1 -1 -1 -1 -1 -1 -1 -1 -1 -0
2 2 2 2 2 2 1 1 1 1 0 1 1 1 0 0 0 0 -0 -1 -1 -1 -1 -1 -1 -1 -1 -1 -1 -1 -1 -0 -0
2 2 2 2 2 2 2 2 1 1 1 1 1 1 0 -0 -0 0 0 0 -0 -1 -0 -0 -1 -1 -1 -1 -0 -0 -0 -0 0
2 2 2 2 2 2 2 2 2 1 1 1 1 1 1 1 0 1 1 1 0 -0 -0 -0 -0 -0 -1 -0 -0 -0 -0 0 0
3 3 3 3 2 2 2 2 2 2 2 2 2 2 2 2 2 2 2 1 1 0 0 0 0 -0 -0 -0 -0 -0 0 0 0
6 5 5 5 4 4 3 3 2 2 2 2 2 3 3 3 3 3 2 2 1 1 0 0 0 -0 0 0 0 0 0 0 0
10 9 9 9 8 8 7 7 6 5 4 4 3 3 3 4 4 4 3 2 2 1 1 1 1 0 0 0 0 0 1 1 1
15 14 14 14 14 14 13 12 11 10 10 8 7 6 6 6 5 5 4 4 3 2 2 2 2 2 1 1 1 1 1 1 1
18 18 18 18 18 18 17 17 16 16 15 14 13 12 11 11 10 8 7 6 5 4 3 3 3 3 2 2 2 1 1 1 1
20 20 20 20 20 20 19 19 18 18 18 18 18 17 17 16 15 14 12 10 8 6 5 4 3 3 3 3 2 2 2 2 1
21 21 21 21 21 21 20 20 19 19 19 19 19 19 19 19 19 18 17 15 13 11 9 6 5 3 3 3 2 2 2 2 2
22 21 21 22 22 21 21 20 20 19 19 19 19 19 20 20 20 20 19 18 17 15 13 10 8 6 4 4 3 2 2 2 2
22 22 22 22 22 22 21 21 20 20 19 19 19 20 20 21 21 21 21 21 20 19 18 16 13 11 8 7 5 4 3 2 2
23 23 23 23 22 22 22 21 21 21 20 20 20 20 20 21 22 22 22 22 22 22 21 20 19 17 15 13 10 8 6 4 3
23 23 23 23 23 23 23 22 22 21 21 20 19 19 20 21 22 23 23 23 23 23 23 23 22 22 21 19 17 14 12 9 8
23 23 23 23 23 23 23 22 22 22 22 20 19 18 18 20 22 23 23 23 24 24 24 24 24 24 23 23 22 20 19 16 15
22 22 23 23 23 22 23 23 22 22 22 22 20 18 18 19 21 22 23 24 24 24 24 25 25 25 24 24 24 24 23 21 20
23 23 23 23 23 23 23 23 23 23 23 23 22 21 20 20 20 21 22 23 24 24 25 25 25 25 25 25 25 25 24 23 22
23 23 23 23 23 23 24 24 24 23 23 23 23 23 22 21 20 20 21 23 24 24 25 25 25 25 25 25 25 25 24 23 23